Location: Forst
(46.9333°N, 15.4333°E)
Time: 05:33:30
(UTC+00:00)

Cosmos 1943 Rocket - Pass Details

Date: 01 December 2020
Orbit: 811 x 844 km, 71.0° (Epoch: 18 January)

Event Time Altitude Azimuth Distance (km) Brightness Sun altitude
Rises 16:09:47 0° 334° (NNW) 3,359 5.4 -9.7°
Reaches altitude 10° 16:12:13 10° 336° (NNW) 2,427 4.6 -10.1°
Maximum altitude 16:17:47 76° 62° (ENE) 856 2.1 -11.0°
Drops below altitude 10° 16:23:22 10° 148° (SSE) 2,433 4.5 -11.9°
Sets 16:25:49 0° 150° (SSE) 3,368 5.2 -12.3°
